Station Historical Data
Daily Summary for November 22, 2017 Units:  English    Metric   Both
Next Day »
Daily Weekly Monthly Yearly Custom
  High: Low: Average:
Temperature: 69.6 °F 56.5 °F 61.7 °F
Dew Point: 58.2 °F 46.1 °F 51.2 °F
Humidity: 76% 54% 69%
Wind Speed: 14.0mph 0.0mph 2.3mph
Wind Gust: 18.0mph - -
Wind- - ESE
Pressure: 30.24 in 30.12 in -
Precipitation: 0.00 in    
Historical Graphs
 
 
Tabular Data for November 22, 2017
Time Temperature Dew Point Pressure Wind Wind Speed Wind Gust Humidity Rainfall Rate (Hourly) solar Conditions
00:03 57.2 °F 47.1 °F 30.22 in Calm   12.0 mph 69% 0.00 in 0.00 W/m2
00:08 57.2 °F 47.1 °F 30.22 in East 13.0 mph 14.0 mph 69% 0.00 in 0.00 W/m2
00:23 57.1 °F 47.0 °F 30.22 in East 1.0 mph 16.0 mph 69% 0.00 in 0.00 W/m2
00:28 57.1 °F 47.4 °F 30.22 in ESE 2.0 mph 16.0 mph 70% 0.00 in 0.00 W/m2
00:38 57.1 °F 47.0 °F 30.22 in East 4.0 mph 14.0 mph 69% 0.00 in 0.00 W/m2
00:43 57.2 °F 47.1 °F 30.22 in ESE 12.0 mph 14.0 mph 69% 0.00 in 0.00 W/m2
00:48 57.2 °F 47.5 °F 30.22 in East 8.0 mph 16.0 mph 70% 0.00 in 0.00 W/m2
00:53 57.2 °F 46.8 °F 30.22 in ESE 5.0 mph 16.0 mph 68% 0.00 in 0.00 W/m2
00:58 57.2 °F 46.8 °F 30.21 in East 8.0 mph 16.0 mph 68% 0.00 in 0.00 W/m2
01:03 57.2 °F 46.8 °F 30.21 in Calm   12.0 mph 68% 0.00 in 0.00 W/m2
01:08 57.2 °F 46.8 °F 30.21 in East 7.0 mph 14.0 mph 68% 0.00 in 0.00 W/m2
01:13 57.3 °F 46.5 °F 30.22 in Calm   16.0 mph 67% 0.00 in 0.00 W/m2
01:18 57.3 °F 46.8 °F 30.22 in East 12.0 mph 14.0 mph 68% 0.00 in 0.00 W/m2
01:28 57.2 °F 47.1 °F 30.22 in ESE 4.0 mph 14.0 mph 69% 0.00 in 0.00 W/m2
01:33 57.2 °F 46.8 °F 30.22 in East 8.0 mph 12.0 mph 68% 0.00 in 0.00 W/m2
01:38 57.2 °F 46.8 °F 30.22 in East 4.0 mph 9.0 mph 68% 0.00 in 0.00 W/m2
01:39 57.2 °F 46.8 °F 30.22 in East 7.0 mph 9.0 mph 68% 0.00 in 0.00 W/m2
01:44 57.2 °F 46.8 °F 30.22 in East 2.0 mph 11.0 mph 68% 0.00 in 0.00 W/m2
01:59 57.2 °F 46.8 °F 30.22 in SE 9.0 mph 13.0 mph 68% 0.00 in 0.00 W/m2
02:04 57.2 °F 47.1 °F 30.22 in ESE 2.0 mph 13.0 mph 69% 0.00 in 0.00 W/m2
02:09 57.1 °F 46.7 °F 30.22 in East 7.0 mph 14.0 mph 68% 0.00 in 0.00 W/m2
02:24 57.0 °F 46.6 °F 30.22 in East 5.0 mph 13.0 mph 68% 0.00 in 0.00 W/m2
02:34 56.9 °F 46.8 °F 30.22 in East 4.0 mph 12.0 mph 69% 0.00 in 0.00 W/m2
02:39 56.9 °F 46.8 °F 30.22 in East 6.0 mph 15.0 mph 69% 0.00 in 0.00 W/m2
02:54 56.8 °F 46.8 °F 30.21 in East 11.0 mph 12.0 mph 69% 0.00 in 0.00 W/m2
02:59 56.7 °F 47.0 °F 30.21 in East 14.0 mph 14.0 mph 70% 0.00 in 0.00 W/m2
03:04 56.6 °F 46.2 °F 30.21 in ESE 13.0 mph 16.0 mph 68% 0.00 in 0.00 W/m2
03:09 56.6 °F 46.9 °F 30.21 in SE 5.0 mph 15.0 mph 70% 0.00 in 0.00 W/m2
03:14 56.6 °F 46.6 °F 30.20 in East 10.0 mph 16.0 mph 69% 0.00 in 0.00 W/m2
03:19 56.6 °F 46.6 °F 30.20 in Calm   14.0 mph 69% 0.00 in 0.00 W/m2
03:24 56.6 °F 46.9 °F 30.20 in East 13.0 mph 16.0 mph 70% 0.00 in 0.00 W/m2
03:29 56.5 °F 46.5 °F 30.20 in ESE 7.0 mph 16.0 mph 69% 0.00 in 0.00 W/m2
03:34 56.6 °F 46.6 °F 30.20 in ESE 6.0 mph 13.0 mph 69% 0.00 in 0.00 W/m2
03:39 56.6 °F 46.6 °F 30.20 in ESE 8.0 mph 15.0 mph 69% 0.00 in 0.00 W/m2
03:49 56.8 °F 46.8 °F 30.20 in East 4.0 mph 15.0 mph 69% 0.00 in 0.00 W/m2
03:54 56.9 °F 46.8 °F 30.20 in East 2.0 mph 14.0 mph 69% 0.00 in 0.00 W/m2
03:59 56.9 °F 46.5 °F 30.20 in East 4.0 mph 16.0 mph 68% 0.00 in 0.00 W/m2
04:14 57.1 °F 46.7 °F 30.20 in ESE 7.0 mph 18.0 mph 68% 0.00 in 0.00 W/m2
04:29 57.1 °F 46.7 °F 30.20 in East 11.0 mph 14.0 mph 68% 0.00 in 0.00 W/m2
04:34 57.1 °F 46.7 °F 30.20 in ESE 9.0 mph 18.0 mph 68% 0.00 in 0.00 W/m2
04:44 57.2 °F 46.8 °F 30.20 in ENE 4.0 mph 11.0 mph 68% 0.00 in 0.00 W/m2
04:49 57.1 °F 47.0 °F 30.20 in East 11.0 mph 13.0 mph 69% 0.00 in 0.00 W/m2
05:04 57.0 °F 46.2 °F 30.19 in ESE 1.0 mph 13.0 mph 67% 0.00 in 0.00 W/m2
05:19 56.9 °F 46.1 °F 30.19 in East 4.0 mph 13.0 mph 67% 0.00 in 0.00 W/m2
05:34 56.9 °F 46.5 °F 30.19 in ESE 8.0 mph 16.0 mph 68% 0.00 in 0.00 W/m2
05:44 56.8 °F 46.8 °F 30.19 in ESE 5.0 mph 16.0 mph 69% 0.00 in 0.00 W/m2
05:49 56.8 °F 46.8 °F 30.19 in East 9.0 mph 16.0 mph 69% 0.00 in 0.00 W/m2
05:55 56.8 °F 47.1 °F 30.19 in ESE 4.0 mph 16.0 mph 70% 0.00 in 0.00 W/m2
06:10 56.8 °F 47.1 °F 30.20 in ESE 1.0 mph 15.0 mph 70% 0.00 in 0.00 W/m2
06:15 56.8 °F 46.8 °F 30.20 in Calm   14.0 mph 69% 0.00 in 0.00 W/m2
06:20 56.8 °F 46.4 °F 30.20 in ESE 6.0 mph 14.0 mph 68% 0.00 in 0.00 W/m2
06:25 56.9 °F 46.8 °F 30.20 in East 6.0 mph 12.0 mph 69% 0.00 in 0.00 W/m2
06:30 56.9 °F 46.8 °F 30.20 in SE 2.0 mph 13.0 mph 69% 0.00 in 0.00 W/m2
06:40 57.1 °F 47.0 °F 30.21 in ESE 4.0 mph 14.0 mph 69% 0.00 in 0.00 W/m2
06:45 57.1 °F 47.4 °F 30.21 in Calm   11.0 mph 70% 0.00 in 5.00 W/m2
06:50 57.0 °F 46.6 °F 30.21 in Calm   14.0 mph 68% 0.00 in 7.00 W/m2
06:55 57.0 °F 46.9 °F 30.21 in ESE 7.0 mph 11.0 mph 69% 0.00 in 9.00 W/m2
07:00 57.0 °F 46.9 °F 30.21 in Calm   11.0 mph 69% 0.00 in 12.00 W/m2
07:10 56.9 °F 47.2 °F 30.21 in Calm   12.0 mph 70% 0.00 in 18.00 W/m2
07:15 56.9 °F 47.2 °F 30.22 in East 4.0 mph 14.0 mph 70% 0.00 in 21.00 W/m2
07:20 56.8 °F 46.8 °F 30.22 in Calm   12.0 mph 69% 0.00 in 28.00 W/m2
07:30 56.8 °F 47.1 °F 30.22 in East 5.0 mph 12.0 mph 70% 0.00 in 53.00 W/m2
07:35 56.8 °F 47.1 °F 30.22 in East 5.0 mph 12.0 mph 70% 0.00 in 65.00 W/m2
07:40 56.8 °F 47.1 °F 30.22 in Calm   9.0 mph 70% 0.00 in 54.00 W/m2
07:50 56.9 °F 47.6 °F 30.22 in East 5.0 mph 11.0 mph 71% 0.00 in 97.00 W/m2
07:55 57.0 °F 47.7 °F 30.22 in Calm   16.0 mph 71% 0.00 in 118.00 W/m2
08:00 57.1 °F 47.8 °F 30.22 in Calm   13.0 mph 71% 0.00 in 134.00 W/m2
08:05 57.1 °F 47.8 °F 30.22 in ESE 1.0 mph 14.0 mph 71% 0.00 in 156.00 W/m2
08:10 57.2 °F 47.9 °F 30.22 in East 7.0 mph 11.0 mph 71% 0.00 in 146.00 W/m2
08:20 57.4 °F 47.7 °F 30.23 in ESE 8.0 mph 11.0 mph 70% 0.00 in 193.00 W/m2
08:25 57.5 °F 48.2 °F 30.23 in Calm   10.0 mph 71% 0.00 in 193.00 W/m2
08:26 57.5 °F 48.2 °F 30.23 in ESE 2.0 mph 6.0 mph 71% 0.00 in 193.00 W/m2
08:31 57.7 °F 48.8 °F 30.23 in ESE 6.0 mph 7.0 mph 72% 0.00 in 244.00 W/m2
08:41 58.0 °F 48.7 °F 30.23 in East 8.0 mph 14.0 mph 71% 0.00 in 292.00 W/m2
08:46 58.2 °F 48.8 °F 30.23 in ESE 9.0 mph 12.0 mph 71% 0.00 in 297.00 W/m2
08:51 58.5 °F 48.4 °F 30.23 in ESE 7.0 mph 7.0 mph 69% 0.00 in 322.00 W/m2
08:56 58.8 °F 48.3 °F 30.23 in Calm   7.0 mph 68% 0.00 in 338.00 W/m2
09:01 59.2 °F 49.0 °F 30.23 in ESE 7.0 mph 8.0 mph 69% 0.00 in 352.00 W/m2
09:11 60.0 °F 49.4 °F 30.23 in ESE 4.0 mph 8.0 mph 68% 0.00 in 388.00 W/m2
09:21 60.7 °F 49.7 °F 30.23 in ESE 6.0 mph 12.0 mph 67% 0.00 in 420.00 W/m2
09:31 61.4 °F 50.4 °F 30.23 in ESE 5.0 mph 6.0 mph 67% 0.00 in 439.00 W/m2
09:36 61.7 °F 50.6 °F 30.23 in Calm   4.0 mph 67% 0.00 in 429.00 W/m2
09:41 62.1 °F 50.2 °F 30.23 in East 4.0 mph 8.0 mph 65% 0.00 in 420.00 W/m2
09:46 62.4 °F 51.3 °F 30.24 in Calm   7.0 mph 67% 0.00 in 490.00 W/m2
09:51 62.7 °F 51.2 °F 30.24 in Calm     66% 0.00 in 520.00 W/m2
09:56 63.1 °F 52.0 °F 30.23 in Calm   4.0 mph 67% 0.00 in 417.00 W/m2
10:01 63.4 °F 51.9 °F 30.23 in ESE 7.0 mph 7.0 mph 66% 0.00 in 403.00 W/m2
10:06 63.8 °F 51.0 °F 30.23 in ESE 2.0 mph 6.0 mph 63% 0.00 in 406.00 W/m2
10:11 64.2 °F 50.9 °F 30.23 in SE 1.0 mph 6.0 mph 62% 0.00 in 457.00 W/m2
10:16 64.6 °F 52.2 °F 30.23 in Calm     64% 0.00 in 339.00 W/m2
10:21 65.0 °F 52.1 °F 30.22 in ENE 1.0 mph 8.0 mph 63% 0.00 in 410.00 W/m2
10:26 65.3 °F 52.0 °F 30.22 in ESE 1.0 mph 4.0 mph 62% 0.00 in 403.00 W/m2
10:31 65.6 °F 51.4 °F 30.22 in SE 4.0 mph 8.0 mph 60% 0.00 in 483.00 W/m2
10:36 65.9 °F 51.6 °F 30.22 in Calm   6.0 mph 60% 0.00 in 497.00 W/m2
10:41 66.2 °F 51.9 °F 30.22 in Calm     60% 0.00 in 568.00 W/m2
10:46 66.5 °F 51.8 °F 30.22 in ESE 5.0 mph 11.0 mph 59% 0.00 in 475.00 W/m2
10:51 67.0 °F 51.3 °F 30.21 in ESE 6.0 mph 9.0 mph 57% 0.00 in 452.00 W/m2
10:56 67.4 °F 52.1 °F 30.21 in ESE 4.0 mph 5.0 mph 58% 0.00 in 397.00 W/m2
11:06 68.1 °F 52.3 °F 30.21 in Calm   5.0 mph 57% 0.00 in 424.00 W/m2
11:11 68.3 °F 52.0 °F 30.21 in Calm   4.0 mph 56% 0.00 in 345.00 W/m2
11:16 68.5 °F 53.2 °F 30.21 in Calm     58% 0.00 in 397.00 W/m2
11:21 68.6 °F 52.3 °F 30.21 in Calm     56% 0.00 in 339.00 W/m2
11:26 68.7 °F 53.3 °F 30.21 in Calm     58% 0.00 in 417.00 W/m2
11:31 68.7 °F 52.9 °F 30.20 in Calm     57% 0.00 in 404.00 W/m2
11:37 68.8 °F 52.5 °F 30.20 in Calm     56% 0.00 in 348.00 W/m2
11:42 68.8 °F 53.0 °F 30.19 in Calm     57% 0.00 in 457.00 W/m2
11:47 68.9 °F 52.6 °F 30.19 in Calm     56% 0.00 in 406.00 W/m2
11:52 68.9 °F 53.5 °F 30.19 in Calm   2.0 mph 58% 0.00 in 362.00 W/m2
11:57 69.0 °F 54.1 °F 30.19 in Calm   1.0 mph 59% 0.00 in 492.00 W/m2
12:02 69.2 °F 55.6 °F 30.19 in Calm     62% 0.00 in 513.00 W/m2
12:07 69.3 °F 54.4 °F 30.19 in Calm     59% 0.00 in 165.00 W/m2
12:17 69.5 °F 53.1 °F 30.19 in Calm     56% 0.00 in 165.00 W/m2
12:22 69.6 °F 52.2 °F 30.19 in Calm     54% 0.00 in 227.00 W/m2
12:27 69.6 °F 53.2 °F 30.19 in Calm     56% 0.00 in 251.00 W/m2
12:32 69.6 °F 54.2 °F 30.19 in Calm     58% 0.00 in 236.00 W/m2
12:37 69.5 °F 54.6 °F 30.19 in Calm     59% 0.00 in 216.00 W/m2
12:42 69.4 °F 56.7 °F 30.18 in Calm     64% 0.00 in 188.00 W/m2
12:47 69.3 °F 57.0 °F 30.18 in Calm     65% 0.00 in 206.00 W/m2
12:57 68.9 °F 55.4 °F 30.18 in Calm     62% 0.00 in 200.00 W/m2
13:02 68.8 °F 54.8 °F 30.17 in Calm     61% 0.00 in 179.00 W/m2
13:13 68.7 °F 56.0 °F 30.17 in Calm     64% 0.00 in 199.00 W/m2
13:18 68.7 °F 56.5 °F 30.16 in Calm     65% 0.00 in 220.00 W/m2
13:23 68.7 °F 56.9 °F 30.16 in Calm     66% 0.00 in 202.00 W/m2
13:33 68.6 °F 57.6 °F 30.16 in Calm     68% 0.00 in 199.00 W/m2
13:43 68.5 °F 56.7 °F 30.16 in Calm     66% 0.00 in 204.00 W/m2
13:48 68.5 °F 56.7 °F 30.16 in Calm     66% 0.00 in 163.00 W/m2
13:58 68.4 °F 55.8 °F 30.15 in Calm     64% 0.00 in 287.00 W/m2
14:03 68.4 °F 55.8 °F 30.15 in Calm     64% 0.00 in 234.00 W/m2
14:08 68.4 °F 56.2 °F 30.15 in Calm     65% 0.00 in 264.00 W/m2
14:13 68.4 °F 55.8 °F 30.15 in Calm     64% 0.00 in 325.00 W/m2
14:18 68.4 °F 56.2 °F 30.15 in Calm     65% 0.00 in 153.00 W/m2
14:23 68.4 °F 56.2 °F 30.15 in Calm     65% 0.00 in 139.00 W/m2
14:28 68.4 °F 55.8 °F 30.15 in Calm     64% 0.00 in 102.00 W/m2
14:33 68.4 °F 55.3 °F 30.15 in Calm     63% 0.00 in 113.00 W/m2
14:38 68.4 °F 55.3 °F 30.15 in Calm     63% 0.00 in 107.00 W/m2
14:48 68.1 °F 56.7 °F 30.15 in Calm     67% 0.00 in 81.00 W/m2
14:58 67.5 °F 55.8 °F 30.15 in Calm     66% 0.00 in 83.00 W/m2
15:03 67.3 °F 56.0 °F 30.14 in Calm     67% 0.00 in 81.00 W/m2
15:08 67.1 °F 55.8 °F 30.14 in Calm     67% 0.00 in 58.00 W/m2
15:13 66.9 °F 55.6 °F 30.14 in Calm     67% 0.00 in 60.00 W/m2
15:18 66.6 °F 55.7 °F 30.13 in Calm     68% 0.00 in 70.00 W/m2
15:28 66.3 °F 58.2 °F 30.12 in Calm     75% 0.00 in 63.00 W/m2
15:33 66.1 °F 57.6 °F 30.12 in Calm     74% 0.00 in 53.00 W/m2
15:38 66.0 °F 57.9 °F 30.12 in Calm   2.0 mph 75% 0.00 in 39.00 W/m2
15:43 65.8 °F 57.3 °F 30.12 in Calm   1.0 mph 74% 0.00 in 39.00 W/m2
15:48 65.7 °F 56.4 °F 30.13 in Calm     72% 0.00 in 23.00 W/m2
15:53 65.6 °F 56.3 °F 30.13 in Calm   1.0 mph 72% 0.00 in 12.00 W/m2
15:58 65.4 °F 56.5 °F 30.13 in SE 1.0 mph 4.0 mph 73% 0.00 in 12.00 W/m2
16:03 65.3 °F 56.8 °F 30.12 in Calm   5.0 mph 74% 0.00 in 23.00 W/m2
16:13 64.9 °F 56.0 °F 30.12 in Calm   7.0 mph 73% 0.00 in 21.00 W/m2
16:14 64.9 °F 56.0 °F 30.12 in Calm   7.0 mph 73% 0.00 in 21.00 W/m2
16:19 64.8 °F 56.0 °F 30.13 in Calm   4.0 mph 73% 0.00 in 18.00 W/m2
16:24 64.8 °F 56.0 °F 30.14 in Calm   1.0 mph 73% 0.00 in 16.00 W/m2
16:34 64.6 °F 55.8 °F 30.12 in ESE 2.0 mph 5.0 mph 73% 0.00 in 5.00 W/m2
16:35 64.6 °F 55.8 °F 30.12 in Calm   5.0 mph 73% 0.00 in 5.00 W/m2
16:40 64.5 °F 55.7 °F 30.12 in Calm   5.0 mph 73% 0.00 in 0.00 W/m2
16:45 64.4 °F 55.2 °F 30.12 in Calm   5.0 mph 72% 0.00 in 0.00 W/m2
16:50 64.2 °F 55.4 °F 30.12 in ESE 1.0 mph 2.0 mph 73% 0.00 in 0.00 W/m2
16:55 64.1 °F 55.7 °F 30.13 in Calm     74% 0.00 in 0.00 W/m2
17:00 64.0 °F 55.2 °F 30.12 in ESE 5.0 mph 5.0 mph 73% 0.00 in 0.00 W/m2
17:10 63.7 °F 55.3 °F 30.12 in Calm   7.0 mph 74% 0.00 in 0.00 W/m2
17:20 63.5 °F 54.7 °F 30.13 in Calm   2.0 mph 73% 0.00 in 0.00 W/m2
17:25 63.5 °F 55.1 °F 30.13 in Calm   6.0 mph 74% 0.00 in 0.00 W/m2
17:35 63.3 °F 54.9 °F 30.13 in Calm   8.0 mph 74% 0.00 in 0.00 W/m2
17:37 63.2 °F 54.8 °F 30.13 in Calm   4.0 mph 74% 0.00 in 0.00 W/m2
17:42 63.1 °F 54.7 °F 30.13 in Calm   2.0 mph 74% 0.00 in 0.00 W/m2
17:52 63.0 °F 55.0 °F 30.13 in East 1.0 mph 5.0 mph 75% 0.00 in 0.00 W/m2
17:57 63.0 °F 55.0 °F 30.13 in East 4.0 mph 5.0 mph 75% 0.00 in 0.00 W/m2
18:08 62.9 °F 55.2 °F 30.13 in ESE 4.0 mph 8.0 mph 76% 0.00 in 0.00 W/m2
18:13 62.8 °F 54.4 °F 30.13 in Calm   6.0 mph 74% 0.00 in 0.00 W/m2
18:18 62.8 °F 54.4 °F 30.14 in ESE 4.0 mph 5.0 mph 74% 0.00 in 0.00 W/m2
18:23 62.8 °F 54.0 °F 30.14 in Calm   5.0 mph 73% 0.00 in 0.00 W/m2
18:28 62.8 °F 54.4 °F 30.14 in Calm   4.0 mph 74% 0.00 in 0.00 W/m2
18:33 62.7 °F 54.3 °F 30.14 in Calm   1.0 mph 74% 0.00 in 0.00 W/m2
18:38 62.7 °F 54.3 °F 30.15 in Calm     74% 0.00 in 0.00 W/m2
18:53 62.4 °F 52.9 °F 30.15 in Calm     71% 0.00 in 0.00 W/m2
18:58 62.3 °F 53.2 °F 30.15 in Calm     72% 0.00 in 0.00 W/m2
19:03 62.2 °F 53.5 °F 30.15 in Calm     73% 0.00 in 0.00 W/m2
19:08 62.0 °F 53.6 °F 30.15 in Calm     74% 0.00 in 0.00 W/m2
19:13 61.8 °F 53.8 °F 30.15 in Calm     75% 0.00 in 0.00 W/m2
19:19 61.5 °F 53.5 °F 30.15 in Calm     75% 0.00 in 0.00 W/m2
19:20 61.5 °F 53.5 °F 30.15 in Calm     75% 0.00 in 0.00 W/m2
19:21 61.4 °F 53.4 °F 30.15 in Calm     75% 0.00 in 0.00 W/m2
19:23 61.3 °F 53.3 °F 30.14 in Calm   1.0 mph 75% 0.00 in 0.00 W/m2
19:25 61.2 °F 53.2 °F 30.14 in Calm     75% 0.00 in 0.00 W/m2
19:30 61.0 °F 53.4 °F 30.14 in ESE 2.0 mph 4.0 mph 76% 0.00 in 0.00 W/m2
19:35 60.9 °F 53.3 °F 30.14 in Calm   1.0 mph 76% 0.00 in 0.00 W/m2
19:38 60.8 °F 53.2 °F 30.14 in Calm   1.0 mph 76% 0.00 in 0.00 W/m2
19:48 60.7 °F 52.4 °F 30.15 in Calm   4.0 mph 74% 0.00 in 0.00 W/m2
19:58 60.5 °F 52.2 °F 30.16 in ESE 2.0 mph 2.0 mph 74% 0.00 in 0.00 W/m2
20:03 60.5 °F 51.8 °F 30.16 in Calm     73% 0.00 in 0.00 W/m2
20:08 60.4 °F 51.3 °F 30.16 in Calm   1.0 mph 72% 0.00 in 0.00 W/m2
20:13 60.4 °F 51.7 °F 30.16 in Calm   2.0 mph 73% 0.00 in 0.00 W/m2
20:18 60.4 °F 51.7 °F 30.16 in Calm   4.0 mph 73% 0.00 in 0.00 W/m2
20:23 60.2 °F 51.9 °F 30.16 in Calm   5.0 mph 74% 0.00 in 0.00 W/m2
20:33 60.0 °F 52.1 °F 30.17 in Calm   5.0 mph 75% 0.00 in 0.00 W/m2
20:38 59.9 °F 52.3 °F 30.17 in East 4.0 mph 11.0 mph 76% 0.00 in 0.00 W/m2
20:43 59.8 °F 51.5 °F 30.17 in East 4.0 mph 5.0 mph 74% 0.00 in 0.00 W/m2
20:48 59.8 °F 51.1 °F 30.17 in ESE 1.0 mph 7.0 mph 73% 0.00 in 0.00 W/m2
20:53 59.9 °F 51.6 °F 30.17 in Calm   7.0 mph 74% 0.00 in 0.00 W/m2
21:03 60.0 °F 51.7 °F 30.17 in Calm   6.0 mph 74% 0.00 in 0.00 W/m2
21:08 60.0 °F 51.7 °F 30.17 in Calm   5.0 mph 74% 0.00 in 0.00 W/m2
21:13 60.1 °F 51.4 °F 30.17 in ESE 4.0 mph 6.0 mph 73% 0.00 in 0.00 W/m2
21:18 60.1 °F 51.1 °F 30.17 in Calm   6.0 mph 72% 0.00 in 0.00 W/m2
21:23 60.1 °F 51.8 °F 30.17 in ESE 1.0 mph 7.0 mph 74% 0.00 in 0.00 W/m2
21:28 60.1 °F 51.4 °F 30.17 in East 4.0 mph 12.0 mph 73% 0.00 in 0.00 W/m2
21:43 59.9 °F 50.9 °F 30.17 in Calm   9.0 mph 72% 0.00 in 0.00 W/m2
21:48 59.9 °F 50.9 °F 30.16 in East 5.0 mph 13.0 mph 72% 0.00 in 0.00 W/m2
21:53 59.9 °F 50.9 °F 30.17 in Calm   11.0 mph 72% 0.00 in 0.00 W/m2
21:58 59.9 °F 50.5 °F 30.17 in Calm   2.0 mph 71% 0.00 in 0.00 W/m2
22:08 60.0 °F 50.2 °F 30.17 in Calm   5.0 mph 70% 0.00 in 0.00 W/m2
22:13 60.0 °F 50.6 °F 30.17 in East 4.0 mph 5.0 mph 71% 0.00 in 0.00 W/m2
22:18 60.0 °F 50.6 °F 30.17 in Calm     71% 0.00 in 0.00 W/m2
22:23 60.0 °F 50.2 °F 30.17 in Calm   4.0 mph 70% 0.00 in 0.00 W/m2
22:28 60.0 °F 50.2 °F 30.18 in Calm   5.0 mph 70% 0.00 in 0.00 W/m2
22:33 60.0 °F 49.8 °F 30.18 in East 4.0 mph 5.0 mph 69% 0.00 in 0.00 W/m2
22:39 59.9 °F 50.1 °F 30.18 in East 2.0 mph 6.0 mph 70% 0.00 in 0.00 W/m2
22:44 59.9 °F 50.1 °F 30.18 in East 5.0 mph 7.0 mph 70% 0.00 in 0.00 W/m2
22:54 59.8 °F 50.4 °F 30.17 in Calm   5.0 mph 71% 0.00 in 0.00 W/m2
22:59 59.7 °F 50.7 °F 30.17 in ESE 4.0 mph 5.0 mph 72% 0.00 in 0.00 W/m2
23:04 59.6 °F 50.6 °F 30.17 in Calm   8.0 mph 72% 0.00 in 0.00 W/m2
23:09 59.5 °F 50.1 °F 30.18 in Calm   6.0 mph 71% 0.00 in 0.00 W/m2
23:14 59.4 °F 50.0 °F 30.18 in Calm   6.0 mph 71% 0.00 in 0.00 W/m2
23:24 59.4 °F 50.0 °F 30.18 in Calm   8.0 mph 71% 0.00 in 0.00 W/m2
23:35 59.2 °F 50.2 °F 30.18 in East 2.0 mph 5.0 mph 72% 0.00 in 0.00 W/m2
23:40 59.1 °F 49.7 °F 30.18 in Calm   4.0 mph 71% 0.00 in 0.00 W/m2
23:45 59.0 °F 50.0 °F 30.18 in East 2.0 mph 4.0 mph 72% 0.00 in 0.00 W/m2
23:50 58.9 °F 49.9 °F 30.17 in ESE 2.0 mph 6.0 mph 72% 0.00 in 0.00 W/m2
23:55 58.9 °F 49.5 °F 30.17 in Calm   9.0 mph 71% 0.00 in 0.00 W/m2
Foresthill Weather
 WU-history PHP script courtesy of   Juneau County Weather.
powered by Cumulus v1.9.3 (1059)
Ambient Weather VWS v14.00
Top Contact Website Map Copyright © 2007 - 2018 Foresthillweather.com Never base important decisions on this or any weather information obtained from the Internet